VTD723 UWSG-UWSX

Flight info

Callsign VTD723
Flight time N/A
Altitude 2500
Route N1 5147N04531E/MAKEDONOVKA 5217N04514E/ABODIM UPET SOKUR
Aircraft C172/L-SDFGY/C

Departure

Time 2026-04-26 10:31
Airport Gagarin International Airport (UWSG)

Arrival

Time N/A
Airport UWSX
Time Latitude Longitude Altitude Speed Heading
2026-04-26 10:27 51.71380 46.17416 106 ft 8 kts 182°
2026-04-26 10:28 51.71292 46.17415 105 ft 8 kts 173°
2026-04-26 10:28 51.71253 46.17548 105 ft 22 kts 90°
2026-04-26 10:28 51.71248 46.17852 105 ft 32 kts 94°
2026-04-26 10:28 51.71241 46.18253 103 ft 39 kts 94°
2026-04-26 10:29 51.71235 46.18662 104 ft 30 kts 96°
2026-04-26 10:29 51.71232 46.18982 106 ft 27 kts 89°
2026-04-26 10:29 51.71237 46.19210 108 ft 11 kts 130°
2026-04-26 10:29 51.71215 46.19168 107 ft 0 kts 269°
2026-04-26 10:30 51.71215 46.19160 107 ft 8 kts 275°
2026-04-26 10:30 51.71211 46.18795 106 ft 56 kts 269°
2026-04-26 10:30 51.71292 46.18060 199 ft 70 kts 265°
2026-04-26 10:31 51.71387 46.17257 375 ft 73 kts 268°
2026-04-26 10:31 51.71369 46.16466 628 ft 69 kts 248°
2026-04-26 10:31 51.71312 46.15673 842 ft 77 kts 256°
2026-04-26 10:31 51.71361 46.14784 1132 ft 78 kts 269°
2026-04-26 10:32 51.71365 46.13986 1498 ft 72 kts 238°
2026-04-26 10:32 51.70840 46.13777 1553 ft 96 kts 182°
2026-04-26 10:32 51.70161 46.13956 1526 ft 99 kts 185°
2026-04-26 10:32 51.69471 46.13938 1421 ft 99 kts 198°
2026-04-26 10:33 51.68841 46.14315 1453 ft 113 kts 134°
2026-04-26 10:33 51.68754 46.15632 1409 ft 126 kts 102°
2026-04-26 10:33 51.68607 46.17043 1417 ft 129 kts 108°
2026-04-26 10:33 51.68442 46.18458 1434 ft 129 kts 109°
2026-04-26 10:34 51.68351 46.19938 1368 ft 136 kts 98°
2026-04-26 10:34 51.68296 46.21417 1426 ft 132 kts 100°
2026-04-26 10:34 51.68224 46.22877 1473 ft 130 kts 102°
2026-04-26 10:34 51.68127 46.24317 1448 ft 132 kts 94°
2026-04-26 10:35 51.68099 46.25797 1363 ft 134 kts 99°
2026-04-26 10:35 51.67988 46.27298 1245 ft 135 kts 106°
2026-04-26 10:35 51.68275 46.28683 1190 ft 130 kts 43°
2026-04-26 10:35 51.69055 46.29182 1084 ft 121 kts 358°
2026-04-26 10:36 51.69867 46.29341 964 ft 120 kts
2026-04-26 10:36 51.70626 46.29123 851 ft 107 kts 303°
2026-04-26 10:36 51.71003 46.28159 788 ft 98 kts 280°
2026-04-26 10:36 51.71076 46.27124 722 ft 93 kts 266°
2026-04-26 10:37 51.71067 46.26071 653 ft 94 kts 263°
2026-04-26 10:37 51.71136 46.24993 629 ft 96 kts 265°
2026-04-26 10:37 51.71135 46.23936 591 ft 93 kts 262°
2026-04-26 10:37 51.71144 46.22930 613 ft 86 kts 263°
2026-04-26 10:38 51.71164 46.22030 571 ft 77 kts 266°
2026-04-26 10:38 51.71187 46.21146 440 ft 80 kts 263°
2026-04-26 10:38 51.71198 46.20238 287 ft 83 kts 264°
2026-04-26 10:38 51.71218 46.19331 145 ft 76 kts 259°
2026-04-26 10:39 51.71233 46.18558 106 ft 62 kts 264°
2026-04-26 10:39 51.71229 46.18042 103 ft 38 kts 270°
2026-04-26 10:39 51.71229 46.17601 104 ft 52 kts 271°
2026-04-26 10:39 51.71269 46.16835 155 ft 78 kts 261°
2026-04-26 10:40 51.71298 46.15902 291 ft 88 kts 267°
2026-04-26 10:40 51.71331 46.14966 601 ft 78 kts 264°
2026-04-26 10:40 51.71370 46.14122 994 ft 71 kts 262°
2026-04-26 10:40 51.71088 46.13587 1325 ft 77 kts 194°
2026-04-26 10:41 51.70485 46.13865 1427 ft 99 kts 180°
2026-04-26 10:41 51.69804 46.14059 1453 ft 99 kts 193°
2026-04-26 10:41 51.69112 46.14182 1482 ft 114 kts 161°
2026-04-26 10:41 51.68731 46.15408 1438 ft 139 kts 88°
2026-04-26 10:42 51.69104 46.16795 1423 ft 133 kts 87°
2026-04-26 10:42 51.68801 46.18046 1476 ft 117 kts 133°
2026-04-26 10:42 51.68384 46.19216 1397 ft 125 kts 128°
2026-04-26 10:42 51.67976 46.20453 1334 ft 125 kts 122°
2026-04-26 10:43 51.67643 46.21663 1377 ft 116 kts 111°
2026-04-26 10:43 51.67540 46.22959 1334 ft 119 kts 93°
2026-04-26 10:43 51.67571 46.24289 1312 ft 118 kts 86°
2026-04-26 10:43 51.67584 46.25591 1307 ft 119 kts 93°
2026-04-26 10:44 51.67570 46.26950 1271 ft 122 kts 97°
2026-04-26 10:44 51.67548 46.28330 1261 ft 124 kts 96°
2026-04-26 10:44 51.67513 46.29692 1288 ft 121 kts 97°
2026-04-26 10:44 51.67473 46.30994 1383 ft 113 kts 93°
2026-04-26 10:45 51.67778 46.32138 1317 ft 111 kts 27°
2026-04-26 10:45 51.68473 46.32410 1240 ft 107 kts 358°
2026-04-26 10:45 51.69217 46.32459 1126 ft 109 kts 348°
2026-04-26 10:45 51.69982 46.32391 1059 ft 106 kts 347°
2026-04-26 10:46 51.70712 46.32282 956 ft 105 kts 343°
2026-04-26 10:46 51.71157 46.31646 857 ft 86 kts 259°
2026-04-26 10:46 51.71069 46.30665 783 ft 88 kts 254°
2026-04-26 10:46 51.71013 46.29653 723 ft 94 kts 264°
2026-04-26 10:47 51.71072 46.28607 725 ft 95 kts 266°
2026-04-26 10:47 51.71086 46.27567 698 ft 89 kts 257°
2026-04-26 10:47 51.71084 46.26558 641 ft 91 kts 266°
2026-04-26 10:47 51.71114 46.25544 620 ft 87 kts 261°
2026-04-26 10:48 51.71134 46.24600 595 ft 79 kts 261°
2026-04-26 10:48 51.71139 46.23748 532 ft 74 kts 261°
2026-04-26 10:48 51.71147 46.22922 487 ft 74 kts 259°
2026-04-26 10:48 51.71172 46.22087 457 ft 74 kts 266°
2026-04-26 10:49 51.71182 46.21268 406 ft 75 kts 264°
2026-04-26 10:49 51.71204 46.20375 284 ft 82 kts 261°
2026-04-26 10:49 51.71213 46.19473 143 ft 77 kts 260°
2026-04-26 10:49 51.71223 46.18729 113 ft 57 kts 269°
2026-04-26 10:50 51.71231 46.18140 103 ft 62 kts 266°
2026-04-26 10:50 51.71252 46.17617 166 ft 73 kts 266°
2026-04-26 10:50 51.71277 46.16455 359 ft 81 kts 265°
2026-04-26 10:50 51.71298 46.15555 618 ft 82 kts 262°
2026-04-26 10:51 51.71320 46.14653 996 ft 74 kts 261°
2026-04-26 10:51 51.71261 46.13426 1615 ft 60 kts 268°
2026-04-26 10:51 51.71274 46.12418 1598 ft 83 kts 272°
2026-04-26 10:52 51.71302 46.11769 1585 ft 89 kts 275°
2026-04-26 10:52 51.71511 46.10878 1652 ft 83 kts 300°
2026-04-26 10:52 51.71935 46.10254 1655 ft 84 kts 306°
2026-04-26 10:52 51.72313 46.09493 1639 ft 85 kts 301°
2026-04-26 10:53 51.72544 46.08760 1794 ft 66 kts 288°
2026-04-26 10:53 51.72725 46.08128 1955 ft 59 kts 288°
2026-04-26 10:53 51.72821 46.07425 1984 ft 72 kts 275°
2026-04-26 10:54 51.72977 46.05629 2014 ft 89 kts 283°
2026-04-26 10:54 51.73525 46.04999 2009 ft 114 kts 340°
2026-04-26 10:54 51.74336 46.05107 2002 ft 121 kts
2026-04-26 10:54 51.75116 46.05605 2003 ft 119 kts
2026-04-26 10:55 51.75895 46.05968 1994 ft 114 kts
2026-04-26 10:55 51.76657 46.06269 1994 ft 112 kts
2026-04-26 10:55 51.77377 46.06842 2001 ft 125 kts 34°
2026-04-26 10:55 51.77968 46.07873 1993 ft 124 kts 33°
2026-04-26 10:56 51.78583 46.08836 1997 ft 123 kts 34°
2026-04-26 10:56 51.79065 46.09980 1989 ft 131 kts 77°
2026-04-26 10:56 51.79088 46.11466 1998 ft 134 kts 89°
2026-04-26 10:56 51.78904 46.12911 2000 ft 130 kts 107°
2026-04-26 10:57 51.78738 46.14360 1997 ft 132 kts 95°
2026-04-26 10:57 51.78646 46.15824 1995 ft 130 kts 93°
2026-04-26 10:57 51.78605 46.17294 1988 ft 132 kts 90°
2026-04-26 10:57 51.78592 46.18748 1993 ft 127 kts 90°
2026-04-26 10:58 51.78572 46.20187 2005 ft 130 kts 94°
2026-04-26 10:58 51.78325 46.21583 2003 ft 130 kts 117°
2026-04-26 10:58 51.77933 46.22902 1994 ft 129 kts 122°
2026-04-26 10:58 51.77504 46.24175 1998 ft 129 kts 122°
2026-04-26 10:59 51.77079 46.25450 2006 ft 129 kts 122°
2026-04-26 10:59 51.76646 46.26734 1994 ft 128 kts 132°
2026-04-26 10:59 51.75942 46.27301 1999 ft 106 kts 196°
2026-04-26 10:59 51.75211 46.27250 2003 ft 100 kts 208°
2026-04-26 11:00 51.74610 46.26826 2002 ft 96 kts 220°
2026-04-26 11:00 51.73992 46.26400 2001 ft 97 kts 217°
2026-04-26 11:00 51.73357 46.26001 2003 ft 99 kts 213°
2026-04-26 11:00 51.72688 46.25622 1994 ft 105 kts 214°
2026-04-26 11:01 51.72011 46.25246 2014 ft 102 kts 213°
2026-04-26 11:01 51.71342 46.24869 1985 ft 100 kts 213°
2026-04-26 11:02 51.68642 46.23795 1986 ft 94 kts 209°
2026-04-26 11:02 51.68013 46.23538 1986 ft 93 kts 209°
2026-04-26 11:02 51.67391 46.23285 1986 ft 92 kts 211°
2026-04-26 11:03 51.66762 46.23022 1990 ft 96 kts 209°
2026-04-26 11:03 51.66120 46.22743 1993 ft 95 kts 210°
2026-04-26 11:03 51.65630 46.22233 2000 ft 77 kts 258°
2026-04-26 11:03 51.65803 46.21487 2004 ft 80 kts 320°
2026-04-26 11:04 51.66404 46.21597 1989 ft 109 kts 25°
2026-04-26 11:04 51.66609 46.22839 1943 ft 128 kts 111°
2026-04-26 11:04 51.66026 46.23692 1907 ft 106 kts 190°
2026-04-26 11:04 51.65389 46.23498 1957 ft 86 kts 210°
2026-04-26 11:05 51.64814 46.23314 1982 ft 84 kts 210°
2026-04-26 11:05 51.64249 46.23145 1986 ft 84 kts 209°
2026-04-26 11:05 51.63691 46.22908 1987 ft 80 kts 220°
2026-04-26 11:05 51.63162 46.22597 1986 ft 82 kts 218°
2026-04-26 11:06 51.62644 46.22291 1986 ft 78 kts 221°
2026-04-26 11:06 51.62301 46.22088 1990 ft 79 kts 219°
2026-04-26 11:06 51.61599 46.21494 2003 ft 96 kts 224°
2026-04-26 11:06 51.61016 46.20951 2009 ft 97 kts 223°
2026-04-26 11:07 51.60432 46.20387 2005 ft 99 kts 225°
2026-04-26 11:07 51.59855 46.19746 2041 ft 97 kts 242°
2026-04-26 11:07 51.59877 46.18839 1993 ft 88 kts 308°
2026-04-26 11:07 51.60257 46.18151 1956 ft 77 kts 291°
2026-04-26 11:08 51.60458 46.17364 1863 ft 77 kts 288°
2026-04-26 11:08 51.60622 46.16531 1868 ft 80 kts 284°
2026-04-26 11:08 51.60749 46.15666 1842 ft 81 kts 281°
2026-04-26 11:08 51.60811 46.14750 1691 ft 81 kts 275°
2026-04-26 11:09 51.60847 46.13825 1549 ft 82 kts 278°
2026-04-26 11:09 51.60970 46.12973 1498 ft 79 kts 286°
2026-04-26 11:09 51.61224 46.12248 1482 ft 73 kts 308°
2026-04-26 11:09 51.61765 46.12130 1472 ft 98 kts 13°
2026-04-26 11:10 51.62345 46.12357 1466 ft 78 kts 342°
2026-04-26 11:10 51.62894 46.12352 1523 ft 79 kts 340°
2026-04-26 11:10 51.63471 46.12341 1349 ft 86 kts 342°
2026-04-26 11:10 51.64065 46.12139 1188 ft 89 kts 327°
2026-04-26 11:11 51.64534 46.11665 1254 ft 69 kts 287°
2026-04-26 11:11 51.64600 46.10821 979 ft 80 kts 266°
2026-04-26 11:11 51.64598 46.09965 881 ft 70 kts 258°
2026-04-26 11:11 51.64571 46.09215 786 ft 67 kts 259°
2026-04-26 11:12 51.64559 46.08480 690 ft 65 kts 256°
2026-04-26 11:12 51.64533 46.07703 520 ft 72 kts 257°
2026-04-26 11:12 51.64514 46.06959 463 ft 58 kts 262°
2026-04-26 11:12 51.64502 46.06245 520 ft 71 kts 276°
2026-04-26 11:13 51.64562 46.05456 738 ft 67 kts 254°